Theta_e
280 283 283 283 283 281 277 280 277 277 278 282 284 284 284 285 285 285 284 284 284 284 285 285 287 290 290 290 291 292 292 293 293 295 296 297 298 299 300 301 303 305 306 311
273 282 283 280 284 278 275 282 281 280 279 286 288 288 285 285 285 284 284 284 284 284 284 284 285 286 288 288 288 290 289 289 290 291 292 292 293 295 296 296 297 299 299 299
270 279 277 276 279 281 283 283 283 275 283 287 285 286 285 284 285 284 284 284 284 284 283 284 284 285 285 286 287 287 287 287 287 288 288 289 290 291 291 292 293 293 294 294
276 273 269 278 286 284 283 284 285 286 286 286 288 288 286 286 285 284 284 283 284 283 283 283 284 285 285 285 285 285 285 285 285 286 286 286 287 287 288 289 289 289 290 291
273 276 277 279 284 283 282 280 286 284 287 288 290 289 285 286 286 284 283 283 284 284 283 282 282 284 283 283 283 283 282 283 284 285 285 285 285 286 286 287 287 287 287 288
268 274 268 279 285 288 287 277 286 287 286 284 285 279 280 284 285 285 283 283 283 283 282 281 281 282 282 281 281 280 281 282 283 284 284 284 285 285 286 286 286 287 287 287
266 275 277 284 286 287 276 280 287 287 286 285 282 283 285 285 284 284 282 282 282 281 280 279 280 281 280 280 279 280 281 282 283 283 284 284 285 285 286 286 286 286 286 286
274 275 270 285 284 281 284 286 287 286 286 285 284 284 285 284 283 282 280 280 281 279 279 278 278 279 279 277 278 278 279 281 281 281 283 283 285 285 285 285 284 283 283 284
276 276 284 286 284 287 288 286 286 286 286 286 284 283 284 283 282 281 279 279 279 277 276 276 275 276 276 275 276 276 279 279 280 280 282 282 284 284 284 284 283 282 281 281
273 276 282 284 285 286 287 286 286 286 286 286 284 284 283 282 281 280 277 275 274 276 273 271 271 273 272 273 273 273 275 277 279 279 280 282 282 284 283 282 281 281 281 279
274 277 278 281 283 285 286 285 284 285 285 284 284 283 282 282 281 279 276 272 272 277 269 268 268 268 268 270 271 273 275 277 277 278 280 281 282 282 282 283 282 279 280 279
275 279 279 279 281 285 284 283 284 284 282 282 282 282 279 277 276 274 272 270 268 272 267 265 264 265 266 267 268 269 275 275 277 278 280 280 280 280 283 283 282 282 282 280
279 277 278 277 275 281 285 283 282 281 280 280 275 275 274 273 270 270 267 265 265 266 264 262 262 264 264 265 264 267 271 272 277 278 279 279 279 278 275 277 280 280 280 280
279 279 277 275 280 278 279 277 274 270 269 272 273 267 267 267 265 265 266 265 263 262 261 260 261 262 262 262 263 267 271 268 276 278 278 278 278 277 276 274 272 270 274 277
279 279 279 274 272 270 267 268 268 271 268 266 261 265 263 264 263 263 261 259 260 259 259 259 261 263 260 260 263 269 277 269 270 278 278 278 277 276 275 272 271 268 269 274
278 273 268 273 277 271 269 264 272 272 263 263 264 263 264 261 259 258 257 257 264 265 262 259 260 261 258 258 266 274 277 274 265 276 275 275 276 275 274 269 265 265 266 270
271 270 268 268 273 272 272 275 278 276 267 266 268 262 260 258 256 256 258 257 258 259 260 261 263 258 257 258 259 273 276 277 270 275 269 261 273 273 273 269 260 258 259 270
281 277 281 275 279 276 270 271 271 269 269 270 265 261 259 260 266 264 261 257 256 257 259 262 259 258 258 258 258 269 274 267 262 263 271 262 260 258 265 266 258 258 258 259
276 276 276 276 277 277 276 274 271 270 264 265 263 264 263 261 259 259 259 261 261 262 265 260 265 261 259 259 260 259 260 261 260 259 259 260 259 258 258 257 257 256 256 257
273 271 273 271 268 275 273 270 271 267 263 262 258 259 259 258 258 259 259 263 265 265 261 261 258 258 258 258 263 259 259 259 260 258 258 258 257 257 257 258 256 255 255 255
274 272 272 271 268 259 268 268 269 266 260 260 262 262 262 258 259 259 257 262 263 257 256 258 257 258 257 258 259 258 258 258 258 258 258 258 257 257 257 255 255 256 255 256
270 272 269 267 266 260 256 258 262 262 260 258 256 258 261 266 266 257 257 263 258 259 257 257 257 258 258 261 258 258 257 258 257 256 257 256 256 257 256 255 256 255 255 254
270 270 268 267 267 265 256 257 257 261 261 260 260 260 265 266 262 262 262 262 259 261 260 261 261 263 264 258 257 257 257 257 257 257 256 255 256 255 255 255 255 255 254 254
266 268 266 263 263 262 262 257 256 254 257 258 259 260 262 262 259 258 258 262 262 265 261 261 265 267 260 256 256 256 256 255 256 255 255 257 254 253 253 254 255 254 253 254
266 264 264 265 266 265 262 259 258 256 257 256 257 258 259 258 265 265 262 262 266 263 262 265 267 266 258 256 256 255 255 255 254 253 254 254 253 253 252 252 252 253 252 253
266 267 266 265 265 264 262 262 262 259 260 258 256 258 258 258 259 262 262 262 263 263 263 263 262 260 259 258 257 257 257 256 256 255 255 254 253 253 253 253 253 254 253 252
263 263 263 261 258 263 263 263 262 262 262 263 263 261 262 260 261 261 262 261 261 262 262 261 261 260 259 258 257 258 257 256 257 256 253 253 253 253 254 254 253 253 252 252
Wind_Speed
9 11 9 7 5 5 2 4 3 2 2 5 10 11 10 8 12 15 16 16 15 15 13 14 13 12 13 15 15 13 14 13 12 10 10 11 13 13 13 13 12 11 12 10
5 4 3 7 7 3 2 3 2 3 2 4 4 6 8 10 12 12 13 14 15 15 16 14 16 15 14 15 15 12 13 13 10 12 12 12 12 11 10 12 12 11 11 11
5 1 3 5 6 4 2 1 2 2 1 4 3 5 6 7 8 9 11 12 12 13 13 14 16 15 14 13 12 12 12 11 10 9 10 11 10 11 10 11 9 10 10 10
4 3 2 5 2 4 2 4 4 4 7 7 6 2 2 3 4 6 8 10 12 11 11 11 11 11 10 10 11 10 11 10 12 10 9 9 9 10 9 8 10 9 9 8
0 3 6 3 5 7 6 6 9 5 6 8 8 4 2 2 3 3 3 5 6 7 8 9 10 11 10 10 9 10 12 13 12 11 11 10 11 11 9 9 8 8 7 9
3 2 5 5 3 5 3 4 12 9 6 3 2 2 3 2 2 3 3 3 4 5 6 8 11 9 9 11 11 13 12 11 9 10 11 11 11 10 9 7 8 8 10 9
4 4 7 3 7 4 5 5 7 8 5 4 3 3 3 4 2 2 1 3 3 4 6 7 9 9 9 9 12 10 9 8 8 9 9 8 8 7 8 9 8 10 10 10
3 5 9 7 5 7 5 3 6 6 6 5 5 5 4 4 4 4 4 1 4 4 5 7 9 8 8 10 10 9 9 8 9 10 8 7 8 8 9 9 9 9 10 8
11 9 3 10 4 5 6 7 6 7 6 7 8 7 7 6 6 4 2 2 2 4 4 6 6 7 7 8 8 8 7 8 9 8 8 8 8 9 8 9 9 8 9 9
5 5 9 9 5 5 7 7 6 6 7 8 7 7 6 5 5 4 3 2 1 3 3 2 4 4 3 6 7 6 5 7 7 9 8 9 8 8 8 8 9 9 9 10
7 8 3 10 10 9 8 6 6 6 7 8 8 7 7 6 5 4 4 3 3 4 1 3 4 4 5 6 6 5 4 5 6 5 6 6 6 6 6 7 10 8 8 8
11 9 6 5 8 10 11 11 10 9 6 4 6 8 5 4 3 4 4 3 2 2 2 2 3 4 6 6 6 5 6 6 6 7 8 7 7 6 11 13 16 20 20 15
7 6 4 2 4 7 13 9 6 8 5 8 3 4 3 4 4 4 3 4 4 4 2 1 3 4 6 6 5 4 5 6 5 8 7 6 7 8 8 6 9 17 21 22
4 7 2 3 6 8 8 7 6 4 2 3 5 3 3 3 2 2 3 3 3 2 1 2 1 2 3 3 3 3 5 4 4 6 6 7 6 6 5 6 8 10 15 19
11 7 5 3 5 5 4 6 5 7 5 4 2 5 5 6 4 5 4 3 3 3 1 1 3 4 4 4 3 5 6 4 4 5 5 6 5 6 5 6 6 7 8 12
9 7 4 6 9 8 6 4 8 8 4 4 5 6 6 4 5 4 3 4 5 4 5 2 2 4 4 3 3 3 3 6 5 4 4 4 4 4 4 4 4 5 6 7
8 3 5 6 11 11 13 10 12 10 7 7 8 5 6 5 2 3 5 5 5 4 5 6 5 3 3 1 2 1 3 3 3 4 3 2 3 3 3 2 2 3 3 5
13 5 14 6 13 13 9 10 8 8 9 9 8 7 5 7 8 6 6 6 3 2 5 6 4 3 3 1 1 0 2 2 2 2 2 2 1 2 2 2 2 3 3 5
13 11 9 10 11 12 10 11 10 9 7 8 10 11 8 6 4 4 5 6 6 6 6 5 6 4 3 3 2 2 2 3 2 1 2 2 2 1 2 2 2 1 2 3
10 7 9 7 6 10 10 6 10 9 7 8 6 5 6 6 6 5 4 7 6 4 5 7 4 4 3 2 2 2 3 3 3 2 2 2 2 2 1 2 2 0 1 2
13 10 10 11 8 3 5 8 10 10 8 8 9 8 7 5 6 6 4 4 5 5 4 5 4 3 2 2 2 3 3 2 3 2 2 2 2 2 2 1 1 1 0 0
8 11 9 9 9 6 3 5 6 7 8 7 6 6 7 6 6 4 4 5 1 6 2 2 2 5 3 3 2 3 3 3 2 1 1 2 2 2 2 2 2 2 1 1
7 8 9 10 11 9 6 6 6 7 8 7 8 8 6 5 5 6 3 5 4 5 3 3 5 5 5 3 3 3 3 4 3 2 2 2 2 3 3 3 2 3 2 2
6 7 7 7 9 9 9 5 5 4 5 6 6 7 7 5 1 3 2 6 8 8 5 5 5 6 5 3 3 3 3 3 3 3 3 3 2 2 2 3 3 2 2 2
6 6 8 10 9 6 7 8 6 4 5 4 4 4 5 3 4 7 5 4 8 7 5 6 7 6 4 4 3 3 3 3 4 3 3 3 3 3 3 3 3 3 3 3
8 6 5 5 4 6 6 7 5 5 5 4 2 3 2 2 2 4 5 6 5 6 5 5 4 4 3 3 4 4 4 4 4 3 4 3 3 3 3 4 3 3 3 3
5 5 5 3 2 5 6 6 7 7 6 6 4 4 4 3 3 3 4 4 4 3 3 2 2 3 2 3 3 3 2 3 5 4 3 3 3 3 4 4 4 4 3 3
Wind_Direction
262 260 257 249 273 324 282 258 252 317 68 355 355 345 338 342 2 11 3 2 6 3 349 348 348 6 21 35 35 33 42 47 35 36 38 40 30 27 18 31 16 11 10 356
289 17 225 257 259 305 262 317 331 111 70 4 317 323 1 8 10 10 2 358 357 360 356 357 4 6 16 29 31 25 33 33 16 30 33 38 36 27 13 28 26 10 16 10
274 335 276 279 209 189 254 274 257 108 188 243 284 341 358 2 13 2 1 358 360 357 355 357 354 0 8 22 24 22 26 24 19 26 32 34 30 38 7 22 15 20 21 1
277 1 299 246 142 168 186 229 211 185 212 220 247 181 52 24 27 6 1 1 0 354 347 353 351 4 1 15 27 18 25 21 23 16 23 25 27 28 11 18 12 13 2 359
205 275 280 309 197 188 186 260 206 186 211 250 257 179 234 42 56 54 11 351 339 344 349 341 351 357 10 22 23 20 16 17 10 15 19 24 26 21 15 16 18 9 356 358
347 255 244 242 171 139 147 285 173 202 196 218 300 127 260 57 34 38 38 344 338 347 343 1 350 347 17 18 18 16 6 357 3 14 24 20 20 17 12 16 10 9 3 357
240 263 282 189 146 129 95 231 157 180 182 183 167 194 134 99 104 118 87 9 6 9 20 356 343 346 19 16 19 348 337 345 4 19 17 19 13 15 13 15 16 15 9 359
191 221 279 150 93 177 197 116 156 171 178 175 162 170 165 170 159 150 166 89 19 41 29 3 358 359 18 23 343 333 337 1 12 17 16 5 21 15 18 17 25 14 10 356
179 211 238 197 182 200 171 163 187 173 184 171 170 191 183 190 184 169 153 126 70 53 19 9 357 5 12 345 340 339 349 11 20 18 13 7 13 23 25 22 20 10 10 360
49 256 210 208 232 192 192 195 180 180 176 175 177 179 185 178 183 175 169 171 55 51 37 352 335 355 333 321 324 331 351 9 11 25 19 25 23 22 28 21 16 11 5 1
263 271 306 250 222 196 196 187 174 176 179 179 164 187 182 187 183 174 169 172 158 151 152 307 336 333 336 342 345 359 4 16 14 23 23 21 20 18 31 34 36 14 11 357
221 205 170 211 204 179 179 189 188 167 164 173 182 189 175 195 172 150 168 170 169 173 169 313 340 356 351 345 353 345 30 15 18 23 27 25 27 19 22 35 38 30 28 24
220 186 197 261 243 168 182 184 178 175 175 177 214 162 149 168 169 167 176 166 173 193 189 339 3 20 350 345 351 9 40 20 22 36 30 22 18 16 6 7 23 23 21 25
163 120 309 191 228 179 153 151 129 116 124 159 154 106 133 149 97 149 180 194 164 154 77 30 28 20 309 327 339 11 54 44 29 36 27 29 23 21 25 17 4 349 358 16
193 203 170 140 107 130 91 124 127 175 174 181 151 164 161 167 188 200 199 190 135 127 186 156 56 338 328 332 11 36 37 18 3 33 26 24 20 25 22 14 9 357 348 13
181 153 130 165 181 163 144 160 168 198 182 188 180 191 198 174 171 202 215 181 157 204 201 162 211 250 299 349 12 50 57 43 38 39 26 0 21 15 30 27 4 359 351 3
120 204 204 223 193 185 198 186 193 182 160 180 200 184 166 165 179 243 223 200 192 192 188 181 215 256 289 291 82 40 72 62 70 66 48 22 16 14 31 41 6 346 321 351
206 212 200 191 192 183 188 192 179 175 187 186 154 157 167 185 208 203 191 166 155 233 225 215 212 235 262 256 115 134 82 36 61 88 55 62 50 44 26 55 44 21 329 347
197 193 182 183 174 184 186 182 183 179 155 158 151 189 190 200 192 212 165 166 179 186 234 183 213 174 201 251 161 155 133 114 94 94 102 111 84 62 69 71 49 18 358 0
191 181 163 163 156 162 185 187 164 166 163 150 130 151 183 207 201 185 170 201 201 208 155 164 167 179 202 227 131 131 116 119 128 132 119 118 124 123 111 100 113 92 43 25
186 173 168 167 175 166 173 158 160 172 166 156 166 183 196 191 179 157 145 208 231 186 166 157 168 181 185 173 112 110 104 107 115 139 141 148 134 125 114 138 161 165 245 87
164 170 161 152 155 139 137 130 122 126 151 161 161 160 166 165 155 184 214 201 211 152 159 177 171 184 172 144 137 131 130 125 134 133 146 145 139 154 169 175 176 194 202 221
161 155 148 156 161 147 125 127 140 149 161 168 174 177 182 172 161 155 195 205 168 164 164 182 183 172 159 161 150 139 136 135 153 171 203 183 172 171 178 187 203 186 185 209
140 146 137 114 118 126 146 183 151 153 154 174 186 178 159 150 186 223 167 147 158 160 159 183 189 176 164 158 153 150 155 152 172 174 186 182 180 170 176 193 186 207 215 203
137 124 133 147 156 167 129 142 133 138 145 159 172 175 177 205 167 176 159 164 168 155 166 183 199 176 175 178 174 176 182 176 174 170 179 185 191 191 195 189 201 201 211 211
141 149 150 159 142 140 138 151 154 161 149 158 224 188 182 163 135 144 155 162 175 174 178 186 193 191 191 195 195 198 184 180 165 177 182 185 190 189 196 193 191 209 218 221
88 106 114 78 51 138 149 158 152 178 186 173 158 176 173 165 178 169 162 159 178 187 171 157 185 206 213 206 213 242 224 179 180 176 180 179 182 200 198 204 201 203 202 200